Weather History for Beatrice, NE

Change the Weather History Date:

Friday, January 29, 2010

  Actual Average Record
Temperature  
Mean Temperature 17 °F -  
Max Temperature 23 °F 35 °F 58 °F (1950)
Min Temperature 11 °F 13 °F -18 °F (1966)
Degree Days  
Heating Degree Days 48    
Moisture  
Dew Point 5 °F    
Average Humidity 62    
Maximum Humidity 74    
Minimum Humidity 46    
Precipitation  
Precipitation 0.00 in - - ()
Sea Level Pressure  
Sea Level Pressure 30.34 in    
Wind  
Wind Speed 6 mph (ENE)    
Max Wind Speed 12 mph    
Max Gust Speed -    
Visibility 10 miles    
Events      
Averages and records for this station are not official NWS values.
T = Trace of Precipitation, MM = Missing Value Source: NWS Daily Summary

Daily Weather History Graph

Daily Weather History Graph

Search for Another Location

Airport:

Trip Planner

Search our weather history database for the weather conditions in past years. The results will help you decide how hot, cold, wet, or windy it might be!

Date:

Astronomy

Jan. 29, 2010 Rise Set
Actual Time 7:38 AM CST 5:41 PM CST
Civil Twilight 7:09 AM CST 6:10 PM CST
Nautical Twilight 6:37 AM CST 6:43 PM CST
Astronomical Twilight 6:05 AM CST 7:15 PM CST
Moon 5:21 PM CST (1/29) 7:06 AM CST (1/29)
Length of Visible Light 11h 01m
Length of Day
10h 03m
Full, 100% of the Moon is Illuminated
Jan 29
Full
Jan 30
Full
Feb 5
Last Quarter
Feb 13
New
Feb 21
First Quarter

Hourly Weather History & Observations

Time (CST) Temp. Windchill Dew Point Humidity Pressure Visibility Wind Dir Wind Speed Gust Speed Precip Events Conditions
12:10 AM 14.0 °F 8.2 °F 6.4 °F 72% 30.46 in 10.0 mi East 3.5 mph - N/A   Overcast
12:30 AM 13.6 °F 7.7 °F 5.4 °F 70% 30.45 in 10.0 mi ENE 3.5 mph - N/A   Overcast
12:50 AM 13.5 °F 3.3 °F 5.4 °F 70% 30.44 in 10.0 mi ENE 6.9 mph - N/A   Mostly Cloudy
1:10 AM 13.3 °F - 5.5 °F 71% 30.44 in 10.0 mi Calm Calm - N/A   Overcast
1:30 AM 13.1 °F 7.1 °F 5.0 °F 70% 30.44 in 10.0 mi ENE 3.5 mph - N/A   Mostly Cloudy
1:50 AM 13.1 °F 2.8 °F 5.4 °F 71% 30.43 in 10.0 mi ENE 6.9 mph - N/A   Mostly Cloudy
2:10 AM 13.1 °F 2.8 °F 5.9 °F 73% 30.43 in 10.0 mi NE 6.9 mph - N/A   Overcast
2:30 AM 12.2 °F -0.2 °F 5.0 °F 73% 30.43 in 10.0 mi NE 9.2 mph - N/A   Overcast
2:50 AM 12.9 °F 1.6 °F 5.7 °F 73% 30.43 in 10.0 mi NE 8.1 mph - N/A   Overcast
3:10 AM 12.6 °F 1.1 °F 5.2 °F 72% 30.42 in 10.0 mi NE 8.1 mph - N/A   Overcast
3:30 AM 12.2 °F -1.8 °F 5.2 °F 73% 30.42 in 10.0 mi NE 11.5 mph - N/A   Overcast
3:50 AM 12.2 °F 0.7 °F 5.0 °F 73% 30.41 in 10.0 mi NE 8.1 mph - N/A   Overcast
4:10 AM 12.0 °F 1.5 °F 4.3 °F 71% 30.41 in 10.0 mi ENE 6.9 mph - N/A   Overcast
4:30 AM 12.0 °F -0.4 °F 4.1 °F 71% 30.38 in 10.0 mi ENE 9.2 mph - N/A   Overcast
4:50 AM 12.0 °F 0.5 °F 4.3 °F 71% 30.37 in 10.0 mi NE 8.1 mph - N/A   Overcast
5:10 AM 11.8 °F -0.7 °F 3.6 °F 69% 30.35 in 10.0 mi NE 9.2 mph - N/A   Overcast
5:30 AM 11.8 °F -0.7 °F 3.7 °F 70% 30.35 in 10.0 mi NE 9.2 mph - N/A   Overcast
5:50 AM 11.7 °F 0.0 °F 4.3 °F 72% 30.35 in 10.0 mi NE 8.1 mph - N/A   Mostly Cloudy
6:10 AM 11.3 °F -0.4 °F 3.9 °F 72% 30.35 in 10.0 mi ENE 8.1 mph - N/A   Overcast
6:30 AM 11.3 °F 0.7 °F 4.5 °F 74% 30.35 in 10.0 mi NE 6.9 mph - N/A   Overcast
6:50 AM 11.3 °F -1.3 °F 3.9 °F 72% 30.35 in 10.0 mi NE 9.2 mph - N/A   Overcast
7:10 AM 11.3 °F -1.3 °F 3.6 °F 71% 30.33 in 10.0 mi NE 9.2 mph - N/A   Mostly Cloudy
7:30 AM 11.3 °F -2.9 °F 3.9 °F 72% 30.33 in 10.0 mi ENE 11.5 mph - N/A   Mostly Cloudy
7:50 AM 11.7 °F 1.1 °F 3.7 °F 71% 30.35 in 10.0 mi East 6.9 mph - N/A   Overcast
8:10 AM 11.5 °F 0.9 °F 3.9 °F 72% 30.35 in 10.0 mi ENE 6.9 mph - N/A   Overcast
8:30 AM 11.8 °F 0.3 °F 3.7 °F 70% 30.34 in 10.0 mi ENE 8.1 mph - N/A   Overcast
8:50 AM 12.6 °F 0.2 °F 3.9 °F 68% 30.35 in 10.0 mi ENE 9.2 mph - N/A   Overcast
9:10 AM 13.5 °F 3.3 °F 3.9 °F 66% 30.37 in 10.0 mi East 6.9 mph - N/A   Overcast
9:30 AM 14.0 °F 5.1 °F 4.1 °F 65% 30.37 in 10.0 mi East 5.8 mph - N/A   Overcast
9:50 AM 15.1 °F 5.2 °F 5.0 °F 64% 30.35 in 10.0 mi ENE 6.9 mph - N/A   Overcast
10:10 AM 16.7 °F 6.2 °F 4.3 °F 58% 30.37 in 10.0 mi ESE 8.1 mph - N/A   Scattered Clouds
10:30 AM 16.7 °F 5.3 °F 4.3 °F 58% 30.37 in 10.0 mi ESE 9.2 mph - N/A   Clear
10:50 AM 16.7 °F 7.2 °F 4.5 °F 59% 30.37 in 10.0 mi ESE 6.9 mph - N/A   Mostly Cloudy
11:10 AM 17.4 °F 8.0 °F 4.5 °F 57% 30.35 in 10.0 mi ESE 6.9 mph - N/A   Overcast
11:30 AM 18.1 °F 7.9 °F 4.5 °F 55% 30.34 in 10.0 mi ESE 8.1 mph - N/A   Overcast
11:50 AM 18.1 °F 10.0 °F 4.1 °F 54% 30.33 in 10.0 mi East 5.8 mph - N/A   Mostly Cloudy
12:10 PM 19.0 °F - 5.0 °F 54% 30.33 in 10.0 mi Calm Calm - N/A   Scattered Clouds
12:30 PM 19.8 °F 13.2 °F 5.2 °F 53% 30.32 in 10.0 mi East 4.6 mph - N/A   Clear
12:50 PM 20.1 °F 13.6 °F 5.4 °F 53% 30.31 in 10.0 mi East 4.6 mph - N/A   Clear
1:10 PM 20.8 °F 13.2 °F 5.5 °F 52% 30.29 in 10.0 mi East 5.8 mph - N/A   Clear
1:30 PM 21.9 °F 15.7 °F 5.7 °F 50% 30.27 in 10.0 mi East 4.6 mph - N/A   Scattered Clouds
1:50 PM 22.5 °F 13.2 °F 5.5 °F 48% 30.25 in 10.0 mi ESE 8.1 mph - N/A   Clear
2:10 PM 21.9 °F 13.4 °F 5.5 °F 49% 30.24 in 10.0 mi East 6.9 mph - N/A   Clear
2:30 PM 22.8 °F 14.5 °F 6.3 °F 49% 30.23 in 10.0 mi ENE 6.9 mph - N/A   Clear
2:50 PM 23.4 °F 15.2 °F 5.4 °F 46% 30.23 in 10.0 mi East 6.9 mph - N/A   Clear
3:10 PM 23.7 °F 14.7 °F 6.1 °F 47% 30.23 in 10.0 mi ENE 8.1 mph - N/A   Clear
3:30 PM 23.9 °F 15.8 °F 5.9 °F 46% 30.24 in 10.0 mi ENE 6.9 mph - N/A   Clear
3:50 PM 23.9 °F 15.8 °F 5.7 °F 46% 30.24 in 10.0 mi East 6.9 mph - N/A   Clear
4:10 PM 23.9 °F 15.8 °F 5.7 °F 46% 30.24 in 10.0 mi ENE 6.9 mph - N/A   Clear
4:30 PM 23.4 °F 16.2 °F 5.7 °F 47% 30.24 in 10.0 mi East 5.8 mph - N/A   Clear
4:50 PM 23.0 °F 14.7 °F 6.6 °F 50% 30.24 in 10.0 mi ENE 6.9 mph - N/A   Clear
5:10 PM 22.3 °F 14.9 °F 6.3 °F 50% 30.24 in 10.0 mi NE 5.8 mph - N/A   Clear
5:30 PM 21.7 °F - 6.1 °F 51% 30.24 in 10.0 mi Calm Calm - N/A   Clear
5:50 PM 21.2 °F 14.9 °F 7.3 °F 55% 30.23 in 10.0 mi East 4.6 mph - N/A   Clear
6:10 PM 20.5 °F 15.6 °F 7.5 °F 57% 30.22 in 10.0 mi East 3.5 mph - N/A   Clear
6:30 PM 19.9 °F 14.9 °F 7.9 °F 60% 30.22 in 10.0 mi ENE 3.5 mph - N/A   Clear
6:50 PM 19.2 °F 12.5 °F 8.1 °F 62% 30.21 in 10.0 mi East 4.6 mph - N/A   Clear
7:10 PM 18.5 °F 11.7 °F 8.4 °F 65% 30.21 in 10.0 mi East 4.6 mph - N/A   Clear
7:30 PM 18.0 °F 11.1 °F 8.4 °F 66% 30.21 in 10.0 mi East 4.6 mph - N/A   Clear
7:50 PM 16.9 °F 11.5 °F 9.0 °F 71% 30.22 in 10.0 mi NE 3.5 mph - N/A   Clear
8:10 PM 16.5 °F 9.4 °F 8.8 °F 72% 30.23 in 10.0 mi NE 4.6 mph - N/A   Clear
8:30 PM 15.8 °F 10.2 °F 8.6 °F 73% 30.22 in 10.0 mi East 3.5 mph - N/A   Clear
8:50 PM 15.4 °F 9.8 °F 8.2 °F 73% 30.22 in 10.0 mi East 3.5 mph - N/A   Clear
9:10 PM 14.7 °F 5.9 °F 8.1 °F 75% 30.21 in 10.0 mi East 5.8 mph - N/A   Clear
9:30 PM 14.0 °F 6.5 °F 7.9 °F 77% 30.21 in 10.0 mi East 4.6 mph - N/A   Clear
9:50 PM 13.5 °F 5.8 °F 7.7 °F 78% 30.21 in 10.0 mi East 4.6 mph - N/A   Clear
10:10 PM 13.3 °F 5.6 °F 7.7 °F 78% 30.21 in 10.0 mi East 4.6 mph - N/A   Clear
10:30 PM 13.5 °F 4.4 °F 7.3 °F 77% 30.21 in 10.0 mi East 5.8 mph - N/A   Clear
10:50 PM 13.6 °F 6.0 °F 7.5 °F 77% 30.20 in 10.0 mi East 4.6 mph - N/A   Mostly Cloudy
11:10 PM 13.8 °F 3.7 °F 7.5 °F 76% 30.20 in 10.0 mi East 6.9 mph - N/A   Overcast
11:30 PM 14.0 °F 5.1 °F 7.5 °F 75% 30.21 in 10.0 mi East 5.8 mph - N/A   Overcast
11:50 PM 14.4 °F 6.9 °F 7.5 °F 74% 30.21 in 10.0 mi NE 4.6 mph - N/A   Overcast